Location: Treviso
(45.6669°N, 12.2430°E)
Time: 07:57:03
(UTC+02:00)

NOAA 15 - Visible Passes

Search period start: 26 April 2019 00:00
Search period end: 06 May 2019 00:00
Orbit: 797 x 813 km, 98.8° (Epoch: 25 April)

Date Brightness Start Highest point End Pass type
(mag) Time Alt. Az. Time Alt. Az. Time Alt. Az.
26 Apr 7.5 21:05:37 10° WSW 21:07:58 13° W 21:10:19 10° WNW visible
27 Apr 7.2 20:38:37 10° SW 20:42:35 22° W 20:46:36 10° NW visible
30 Apr 7.5 21:05:09 10° WSW 21:07:34 13° W 21:09:59 10° WNW visible
04 May 7.5 21:04:41 10° WSW 21:07:10 13° W 21:09:39 10° WNW visible
